Content
SEND FEEDBACK

Daily
Averages
Monthly
Summary
United Kingdom

WINCHESTER, ENGLAND


Home > Europe > United Kingdom > England
Elevation: 297 feet     Latitude: 51 09N     Longitude: 001 34W

WEATHER
 
SELECT A DAY
Number of Records: 65,496;   Date Range: 10/20/98 - 12/25/14
 
SHARE

PRINT THIS DATA

[ ← Previous Day ]
WEATHER ALMANAC - NOVEMBER 16, 2013
[ Next Day → ]
[ °C ]   °F
Weather ElementAverageHighLow
Temperature40.2 °F46.4 °F (1:50 pm)32 °F (3:50 am)
Dewpoint37.9 °F43 °F (3:00 pm)30.2 °F (3:50 am)
Humidity91 %100 % (5:50 am)73 % (12:00 pm)
Barometer30.47 in30.54 in (9:00 am)30.39 in (8:50 pm)
Wind Speed2.5 mph5.8 mph (11:50 am)
Weather ElementAverage
Visibility5.5 mi
Wind DirectionWNW (297.7 °)

Weather ElementTotal
Precipitation---
Heating Degree Days25.8 (Base 65)
Averaged from 31 records on November 16, 2013
WEATHER CONDITIONS BREAKOUT
WIND DIRECTION BREAKOUT
WEATHER BY HOUR - NOVEMBER 16, 2013
[ °C ]   °F
Local TimeTemperatureDewpointHumidityBarometerVisibilityWind DirectionWind SpeedGust SpeedPrecipitationEventsConditions
12:50 AM37.4 °F35.6 °F93 %30.51 in6.2 miNorth (350°)3.5 mph
1:50 AM33.8 °F32.0 °F93 %30.51 in5.0 miWest (280°)2.3 mph
2:50 AM33.8 °F32.0 °F93 %30.51 in6.2 miNNW (330°)1.2 mph
3:00 AM34.0 °F32.0 °F89 %30.53 in8.0 miNNW (330°)1.2 mph
3:50 AM32.0 °F30.2 °F93 %30.51 in3.1 miNNW (330°)1.2 mph
4:50 AM32.0 °F30.2 °F93 %30.48 in3.7 miNW (320°)3.5 mph
5:50 AM32.0 °F32.0 °F100 %30.48 in5.0 miNW (320°)1.2 mph
6:00 AM32.0 °F31.0 °F96 %30.51 in5.0 miNW (320°)1.2 mph
6:50 AM33.8 °F32.0 °F93 %30.48 in3.1 miNNW (330°)2.3 mph
7:50 AM33.8 °F33.8 °F100 %30.51 in5.0 miNorth (350°)3.5 mph
8:50 AM35.6 °F33.8 °F93 %30.51 in6.2 miNE (50°)1.2 mph
9:00 AM35.0 °F33.0 °F89 %30.54 in7.0 miNE (50°)1.2 mph
9:50 AM37.4 °F33.8 °F87 %30.51 in6.2 miSSE (150°)2.3 mph
10:50 AM42.8 °F39.2 °F87 %30.51 in6.2 miSW (230°)1.2 mphMostly Cloudy
11:50 AM44.6 °F39.2 °F81 %30.48 in6.2 miWNW (300°)5.8 mphOvercast
12:00 PM45.0 °F39.0 °F73 %30.50 in11.0 miWNW (300°)5.8 mphOvercast
12:50 PM44.6 °F41.0 °F87 %30.45 in6.2 miNW (320°)5.8 mphOvercast
1:50 PM46.4 °F42.8 °F87 %30.45 in6.2 miWNW (300°)5.8 mphOvercast
2:50 PM44.6 °F42.8 °F93 %30.45 in4.3 miNW (320°)2.3 mphMostly Cloudy
3:00 PM45.0 °F43.0 °F90 %30.46 in4.0 miNW (320°)2.3 mphScattered Clouds
3:50 PM44.6 °F42.8 °F93 %30.42 in5.0 miWest (280°)1.2 mphOvercast
4:50 PM44.6 °F42.8 °F93 %30.42 in4.3 miWest (270°)2.3 mphOvercast
5:50 PM44.6 °F42.8 °F93 %30.42 in5.0 miNorth (350°)1.2 mphOvercast
6:00 PM45.0 °F43.0 °F92 %30.45 in5.0 miNorth (350°)1.2 mphOvercast
6:50 PM44.6 °F42.8 °F93 %30.42 inNorth (360°)1.2 mphOvercast
7:50 PM44.6 °F42.8 °F93 %30.42 inNW (320°)2.3 mphMostly Cloudy
8:50 PM44.6 °F42.8 °F93 %30.39 in4.3 miNNW (330°)2.3 mphOvercast
9:00 PM44.0 °F43.0 °F94 %30.43 in4.0 miNNW (330°)2.3 mphOvercast
9:50 PM44.6 °F42.8 °F93 %30.39 in5.6 miNorth (350°)3.5 mphOvercast
10:50 PM44.6 °F41.0 °F87 %30.39 in6.2 miNorth (350°)2.3 mphOvercast
11:50 PM44.6 °F41.0 °F87 %30.39 in5.6 miNNW (340°)3.5 mphOvercast
Hourly data recorded from EGVP, located miles away from Winchester, England







STORIES FROM OUR PARTNERS